Location: Mouch�s
(43.5575°N, 0.4102°E)
Time: 13:59:19
(UTC+00:00)

Daily predictions for brighter satellites

Satellite Brightness Start Highest point End
(mag) Time Altitude Azimuth Time Altitude Azimuth Time Altitude Azimuth
Cosmos 2263 4.3 17:28:04 10° SSW 17:33:52 90° N 17:39:40 10° NNE
ATLAS 5 CENTAUR R/B 2.3 17:31:00 10° SW 17:34:57 51° NW 17:39:23 10° NNE
Lacrosse 5 2.5 17:34:02 10° WSW 17:39:01 56° NW 17:44:01 10° NE
COSMO-SKYMED 1 3.1 17:35:09 10° NNE 17:39:14 37° E 17:43:15 10° SSE
NOSS 2-1 (C) 3.4 17:36:44 10° SW 17:40:04 59° NW 17:43:31 10° NNE
Cosmos 2056 Rocket 4.3 17:35:23 10° SW 17:40:30 56° WNW 17:45:35 10° NNE
Meteor 2-10 4.4 17:36:02 10° SSW 17:41:08 67° WNW 17:46:11 10° N
ATLAS CENTAUR R/B 4.3 17:38:38 10° WNW 17:41:17 19° WSW 17:44:01 10° SSW
USA 276 2.4 17:38:50 10° NW 17:41:59 52° NNE 17:45:07 10° E
Envisat 4.4 17:37:10 10° S 17:42:02 45° W 17:46:54 10° NNW
Cosmos 676 Rocket 4.1 17:37:15 10° NNW 17:42:28 85° WSW 17:47:39 10° SSE
H-2A R/B 3.4 17:40:19 10° ESE 17:44:06 20° ENE 17:47:57 10° NNE
NOSS 2-1 (D) 3.7 17:42:02 10° SW 17:45:17 51° NW 17:48:42 10° NNE
USA 215 4.2 17:40:37 10° ENE 17:46:18 33° NNE 17:52:00 10° NW
SAR-Lupe-4 3.5 17:43:57 10° NNE 17:47:32 66° ESE 17:51:05 10° S
Okean-O 3.4 17:43:42 10° SE 17:47:37 32° ENE 17:51:32 10° N
NOSS 3-1 (C) 4.3 17:40:56 10° NW 17:48:35 83° SW 17:57:22 10° SSE
Cosmos 1328 4.1 17:46:20 10° N 17:50:07 42° ENE 17:53:52 10° SSE
SeaSat 1 3.5 17:46:46 10° ESE 17:50:48 26° NE 17:54:50 10° N
COSMOS 2487 3.5 17:48:11 10° N 17:51:07 25° ENE 17:54:01 10° ESE
Cosmos 1850 Rocket 4.3 17:46:59 10° N 17:52:06 47° ENE 17:57:12 10° SE
H-2A R/B 4.3 17:50:26 10° N 17:53:58 26° WNW 17:57:27 10° WSW
NOAA 11 4.2 17:50:27 10° SSE 17:55:55 90° ESE 18:01:24 10° NNW
Cosmos 1452 Rocket 3.5 17:52:08 10° SSW 17:57:21 73° ESE 18:02:38 10° NNE
Cosmos 1300 3.8 17:55:15 10° SE 17:58:17 23° E 18:01:19 10° NE
YAOGAN 1 3.3 17:55:01 10° SE 17:58:49 31° ENE 18:02:39 10° N
Cosmos 1825 Rocket 4.0 17:55:10 10° N 17:59:23 39° ENE 18:03:32 10° SE
Cosmos 2098 Rocket 3.2 17:57:24 10° NNW 18:00:47 53° W 18:03:43 10° S
Cosmos 304 Rocket 4.0 17:57:41 10° SSW 18:02:27 73° WNW 18:07:15 10° NNE
Cosmos 1656 Rocket 4.1 17:59:34 10° SW 18:05:04 67° WNW 18:10:42 10° NNE
Cosmos 1400 Rocket 4.3 18:02:47 10° SE 18:05:24 17° E 18:05:30 17° E
SAR-Lupe-1 4.2 18:01:50 10° N 18:05:27 80° WNW 18:09:01 10° SSW
Cosmos 1726 4.4 18:02:41 10° SW 18:05:56 28° WNW 18:09:14 10° NNW
CZ-2C R/B 3.7 18:01:24 10° SE 18:06:50 43° ENE 18:12:14 10° N
Cosmos 2369 Rocket 3.7 18:03:38 10° WSW 18:08:51 37° NW 18:14:07 10° N
Cosmos 2297 Rocket 3.6 18:06:26 10° N 18:10:18 18° NE 18:12:08 16° ENE
Cosmos 2266 Rocket 4.1 18:05:29 10° N 18:11:41 86° W 18:17:58 10° S
Cosmos 1689 Rocket 2.0 18:09:30 10° N 18:12:24 82° WNW 18:15:17 10° SSW
Cosmos 1758 Rocket 3.5 18:10:16 10° N 18:14:43 75° E 18:19:05 10° SSE
Cosmos 1726 Rocket 3.9 18:12:09 10° SSE 18:16:12 41° E 18:20:18 10° NNE
Cosmos 1818 4.0 18:12:03 10° SW 18:17:25 62° NW 18:22:50 10° NNE
Cosmos 1953 4.5 18:19:32 10° SW 18:23:00 29° WNW 18:26:29 10° NNW
Helios 1A Rocket 2.9 18:19:13 10° SSE 18:23:21 87° E 18:27:30 10° NNW
PSLV R/B 4.0 18:19:34 10° NNE 18:23:48 83° WNW 18:27:58 10° SSW
CSL-04 Debris 4.4 18:18:52 10° SE 18:23:59 45° ENE 18:29:09 10° N
Meteor 2-21 4.4 18:20:26 10° N 18:26:39 88° E 18:32:47 10° S
Meteor 2-14 Rocket 4.4 18:20:30 10° N 18:26:41 84° E 18:32:50 10° S
SKYMED 2 4.0 18:23:02 10° N 18:27:21 65° WNW 18:31:39 10° SSW
Cosmos 1606 Rocket 3.4 18:24:35 10° S 18:28:54 74° E 18:33:16 10° NNE
Cosmos 2219 4.3 18:24:45 10° N 18:29:31 26° NE 18:30:54 23° ENE
SL-4 R/B 2.7 18:27:46 10° W 18:31:09 41° NNW 18:33:10 22° NE
USA 116 4.5 18:26:43 10° NNE 18:31:49 57° E 18:37:02 10° S
Geosat 4.0 18:28:26 10° NNE 18:33:29 83° WNW 18:38:31 10° SSW
Gbstr 26 Del rocket 4.3 18:28:56 10° WNW 18:35:38 86° SW 18:41:38 19° SE
Cosmos 44 4.0 18:32:25 10° S 18:35:52 28° ESE 18:35:52 28° ESE
GEOS 3 Rocket 3.8 18:32:04 10° SSE 18:37:22 77° SW 18:42:46 10° NW
Cosmos 1340 4.1 18:39:44 10° N 18:41:40 23° NNE 18:41:40 23° NNE
S3M 4.5 18:39:24 10° SSE 18:44:47 34° E 18:50:12 10° NNE
Cosmos 2058 Rocket 3.1 18:42:05 10° S 18:46:25 55° E 18:50:49 10° NNE
Cosmos 1331 Rocket 3.8 18:44:44 10° SSW 18:49:54 82° ESE 18:55:05 10° NNE
Cosmos 2228 3.5 18:46:16 10° SSW 18:50:27 60° WNW 18:54:40 10° N
Cosmos 1953 Rocket 3.6 18:51:28 10° N 18:55:52 79° W 19:00:16 10° S
Cosmos 292 Rocket 3.6 18:51:10 10° S 18:55:53 68° ESE 18:59:05 21° NNE
Meteor 2-16 Rocket 4.5 18:52:11 10° N 18:58:18 82° W 19:04:22 10° S
Cosmos 1417 Rocket 4.5 18:52:40 10° SSE 18:58:41 56° E 19:04:48 10° NNE
MOS 1 Rocket 3.1 18:55:45 10° NNE 19:00:16 82° ESE 19:05:03 10° S
CZ-4 R/B 2.5 18:57:06 10° S 19:00:53 43° W 19:04:39 10° NNW
Aureole 3 Rocket 2.5 19:00:54 10° S 19:04:10 89° W 19:08:24 10° N
Cosmos 2227 Rocket 2.8 19:08:27 10° NNW 19:13:11 39° NE 19:13:11 39° NE
Cosmos 1302 Rocket 3.8 19:09:55 10° S 19:15:07 71° ESE 19:16:03 57° NE
USA 276 4.2 19:15:24 10° W 19:17:35 24° WSW 19:17:35 24° WSW
Cosmos 1553 Rocket 3.9 19:11:50 10° S 19:18:15 87° E 19:24:37 10° N
ATLAS 5 CENTAUR R/B 4.4 19:19:01 10° NW 19:20:50 12° NNW 19:22:44 10° N
Lacrosse 5 3.8 19:19:06 10° WNW 19:22:57 21° NNW 19:24:49 17° NNE
H-2A R/B 2.5 19:17:44 10° S 19:23:00 63° W 19:28:24 10° NNW
Cosmos 968 Rocket 4.4 19:21:13 10° N 19:24:40 35° NNE 19:24:40 35° NNE
ARGOS 3.2 19:23:47 32° S 19:26:25 79° WSW 19:31:53 10° NNW
SeaSat 1 3.1 19:25:37 27° S 19:28:01 51° WSW 19:32:51 10° NW
USA 215 3.2 19:27:26 57° E 19:28:41 71° NE 19:35:12 10° NW
CSL-04 Rocket 4.5 19:27:20 10° S 19:32:43 51° W 19:38:07 10° NNW
ATLAS 2AS CENTAUR R/B 4.3 19:27:40 10° NNW 19:33:15 21° NNE 19:34:19 20° NNE
Cosmos 1400 Rocket 4.2 19:37:39 10° SW 19:47:33 - N 19:41:20 39° W
Cosmos 1745 Rocket 3.9 19:38:06 10° N 19:44:23 83° W 19:45:39 60° S
Cosmos 2297 Rocket 2.6 19:49:22 10° NNW 19:53:58 59° NW 19:53:58 59° NW
Ariane Rocket 4.3 20:06:54 34° NNW 20:06:54 34° NNW 20:09:51 10° NNW
Milstar 3 4.3 20:06:07 10° SW 20:09:50 24° SSW 20:09:50 24° SSW
DEBRIS 4.4 19:56:43 10° WSW 20:12:15 73° NW 20:12:15 73° NW
Cosmos 2219 4.1 20:08:24 10° NNW 20:12:52 47° WNW 20:12:52 47° WNW
Cosmos 2227 Rocket 4.4 20:52:44 10° NW 20:55:02 22° WNW 20:55:02 22° WNW
